User: anonymous   Login
Location: Leeds
(37.2390°N, 113.3580°W)
Time: 01:48:19
(UTC-06:00)
Language:

SL-08 RB Rocket - Orbit

View from above orbital plane
View from above orbital plane
View from above satellite
View from above satellite

Ground track
Ground track

The orbit data is extracted from the following two-line orbital elements,

1 26387U 00033D   15212.29364495  .00000234  00000-0  49326-4 0  9992
2 26387 098.0601 279.6334 0026571 000.8697 040.7353 14.67937594807098
Epoch (UTC): 31 July 2015 07:02:50
Eccentricity: 0.0026571
inclination: 98.0601°
perigee height: 649 km
apogee height: 686 km
right ascension of ascending node: 279.6334°
argument of perigee: 0.8697°
revolutions per day: 14.67937594
mean anomaly at epoch: 40.7353°
orbit number at epoch: 80709

The dashed part of the orbit path shows where the satellite is in the earth's shadow,  

DLR